When you browse on this site, cookies collect data to enhance your experience and personalize the content and advertising you see.
Visit our Privacy Policy to learn more. By continuing to use the site, you agree to this use of cookies and data.
  • In Germany
  • List of Countries
  • For 7 days
  • Water Temperature
  • Weather Map
  • Weather Widgets
  • user-avatar
    Login

    Hourly Weather Sidi Bu-l-Abbas

    Today, 16 September, Monday

    Time Temperature Precipitation Wind Pressure Humidity
    00:00 +24°C° 0 mm 2 mps 722 mmHg 77%
    01:00 +24°C° 0 mm 2 mps 722 mmHg 80%
    02:00 +23°C° 0 mm 2 mps 721 mmHg 83%
    03:00 +23°C° 0 mm 2 mps 721 mmHg 87%
    04:00 +23°C° 0 mm 2 mps 721 mmHg 87%
    05:00 +21°C° 0 mm 2 mps 721 mmHg 87%
    06:00 +21°C° 0 mm 2 mps 722 mmHg 87%
    07:00 +23°C° 0 mm 1 mps 722 mmHg 83%
    08:00 +23°C° 0 mm 1 mps 722 mmHg 79%
    09:00 +24°C° 0 mm 1 mps 722 mmHg 75%
    10:00 +26°C° 0 mm 2 mps 722 mmHg 68%
    11:00 +27°C° 0 mm 2 mps 722 mmHg 60%
    12:00 +29°C° 0 mm 3 mps 723 mmHg 53%
    13:00 +29°C° 0 mm 3 mps 722 mmHg 52%
    14:00 +30°C° 0 mm 4 mps 722 mmHg 50%
    15:00 +30°C° 0 mm 4 mps 721 mmHg 49%
    16:00 +29°C° 0 mm 4 mps 721 mmHg 53%
    17:00 +29°C° 0 mm 3 mps 721 mmHg 56%
    18:00 +28°C° 0 mm 3 mps 721 mmHg 60%
    19:00 +27°C° 0 mm 3 mps 721 mmHg 63%
    20:00 +27°C° 0 mm 2 mps 722 mmHg 65%
    21:00 +26°C° 0 mm 2 mps 722 mmHg 68%
    22:00 +26°C° 0 mm 2 mps 722 mmHg 70%
    23:00 +25°C° 0 mm 1 mps 722 mmHg 71%

    Tomorrow, 17 September, Tuesday

    Time Temperature Precipitation Wind Pressure Humidity
    00:00 +25°C° 0 mm 1 mps 722 mmHg 72%
    01:00 +25°C° 0 mm 1 mps 721 mmHg 73%
    02:00 +24°C° 0 mm 1 mps 721 mmHg 75%
    03:00 +24°C° 0 mm 1 mps 720 mmHg 76%
    04:00 +24°C° 0 mm 1 mps 720 mmHg 78%
    05:00 +23°C° 0 mm 1 mps 721 mmHg 80%
    06:00 +21°C° 0 mm 0 mps 721 mmHg 81%
    07:00 +24°C° 0 mm 1 mps 721 mmHg 74%
    08:00 +26°C° 0 mm 1 mps 721 mmHg 67%
    09:00 +27°C° 0 mm 1 mps 721 mmHg 60%
    10:00 +29°C° 0 mm 2 mps 721 mmHg 53%
    11:00 +30°C° 0 mm 2 mps 721 mmHg 46%
    12:00 +33°C° 0 mm 3 mps 721 mmHg 39%
    13:00 +33°C° 0 mm 3 mps 720 mmHg 42%
    14:00 +31°C° 0 mm 3 mps 720 mmHg 45%
    15:00 +30°C° 0 mm 3 mps 719 mmHg 47%
    16:00 +30°C° 0.1 mm 3 mps 719 mmHg 45%
    17:00 +30°C° 0.1 mm 3 mps 719 mmHg 43%
    18:00 +29°C° 0.1 mm 3 mps 719 mmHg 41%
    19:00 +29°C° 0.1 mm 3 mps 720 mmHg 44%
    20:00 +28°C° 0.1 mm 2 mps 720 mmHg 46%
    21:00 +28°C° 0.1 mm 2 mps 720 mmHg 49%
    22:00 +27°C° 0 mm 2 mps 720 mmHg 51%
    23:00 +27°C° 0 mm 3 mps 720 mmHg 53%

    Day after tomorrow, 18 September, Wednesday

    Time Temperature Precipitation Wind Pressure Humidity
    00:00 +27°C° 0 mm 3 mps 720 mmHg 55%
    01:00 +26°C° 0 mm 2 mps 719 mmHg 62%
    02:00 +25°C° 0 mm 2 mps 719 mmHg 68%
    03:00 +24°C° 0 mm 1 mps 719 mmHg 75%
    04:00 +24°C° 0 mm 2 mps 719 mmHg 77%
    05:00 +24°C° 0 mm 2 mps 719 mmHg 79%
    06:00 +23°C° 0 mm 2 mps 719 mmHg 81%
    07:00 +24°C° 0 mm 1 mps 720 mmHg 75%
    08:00 +26°C° 0 mm 1 mps 720 mmHg 68%
    09:00 +27°C° 0 mm 1 mps 721 mmHg 62%
    10:00 +28°C° 0 mm 2 mps 721 mmHg 60%
    11:00 +28°C° 0 mm 3 mps 721 mmHg 57%
    12:00 +29°C° 0 mm 3 mps 721 mmHg 54%
    13:00 +29°C° 0 mm 4 mps 720 mmHg 54%
    14:00 +29°C° 0 mm 4 mps 720 mmHg 55%
    15:00 +29°C° 0 mm 4 mps 720 mmHg 56%
    16:00 +29°C° 0 mm 4 mps 720 mmHg 59%
    17:00 +28°C° 0 mm 3 mps 720 mmHg 62%
    18:00 +27°C° 0 mm 2 mps 720 mmHg 64%
    19:00 +27°C° 0 mm 2 mps 720 mmHg 67%
    20:00 +26°C° 0 mm 1 mps 721 mmHg 69%
    21:00 +26°C° 0 mm 1 mps 721 mmHg 71%
    22:00 +25°C° 0 mm 1 mps 721 mmHg 73%
    23:00 +25°C° 0 mm 1 mps 721 mmHg 74%

    19 September, Thursday

    Time Temperature Precipitation Wind Pressure Humidity
    00:00 +25°C° 0 mm 1 mps 721 mmHg 75%
    01:00 +25°C° 0 mm 1 mps 721 mmHg 76%
    02:00 +24°C° 0 mm 1 mps 720 mmHg 78%
    03:00 +24°C° 0 mm 1 mps 720 mmHg 80%
    04:00 +24°C° 0 mm 1 mps 720 mmHg 81%
    05:00 +22°C° 0 mm 0 mps 720 mmHg 82%
    06:00 +21°C° 0 mm 0 mps 720 mmHg 83%
    07:00 +23°C° 0 mm 0 mps 721 mmHg 77%
    08:00 +24°C° 0 mm 0 mps 721 mmHg 71%
    09:00 +27°C° 0 mm 1 mps 721 mmHg 64%
    10:00 +29°C° 0 mm 2 mps 721 mmHg 57%
    11:00 +30°C° 0 mm 2 mps 721 mmHg 50%
    12:00 +33°C° 0 mm 3 mps 721 mmHg 44%
    13:00 +32°C° 0 mm 4 mps 721 mmHg 45%
    14:00 +32°C° 0 mm 5 mps 721 mmHg 47%
    15:00 +32°C° 0 mm 5 mps 720 mmHg 49%
    16:00 +30°C° 0 mm 5 mps 720 mmHg 52%
    17:00 +29°C° 0 mm 4 mps 720 mmHg 55%
    18:00 +28°C° 0 mm 3 mps 720 mmHg 58%
    19:00 +27°C° 0 mm 2 mps 720 mmHg 60%
    20:00 +27°C° 0 mm 2 mps 721 mmHg 61%
    21:00 +26°C° 0 mm 1 mps 721 mmHg 62%
    22:00 +26°C° 0.3 mm 1 mps 721 mmHg 63%
    23:00 +26°C° 0.3 mm 2 mps 721 mmHg 64%

    20 September, Friday

    Time Temperature Precipitation Wind Pressure Humidity
    00:00 +26°C° 0.3 mm 2 mps 721 mmHg 65%
    01:00 +25°C° 0 mm 2 mps 721 mmHg 67%
    02:00 +25°C° 0 mm 2 mps 720 mmHg 68%
    03:00 +25°C° 0 mm 3 mps 720 mmHg 70%
    04:00 +25°C° 0 mm 3 mps 720 mmHg 69%
    05:00 +25°C° 0 mm 2 mps 719 mmHg 69%
    06:00 +24°C° 0 mm 2 mps 719 mmHg 69%
    07:00 +25°C° 0 mm 2 mps 719 mmHg 65%
    08:00 +26°C° 0 mm 2 mps 720 mmHg 62%
    09:00 +27°C° 0 mm 1 mps 720 mmHg 58%
    10:00 +28°C° 0 mm 2 mps 720 mmHg 54%
    11:00 +29°C° 0 mm 2 mps 720 mmHg 51%
    12:00 +30°C° 0 mm 3 mps 720 mmHg 47%
    13:00 +30°C° 0 mm 3 mps 719 mmHg 48%
    14:00 +30°C° 0 mm 3 mps 719 mmHg 49%
    15:00 +30°C° 0 mm 4 mps 718 mmHg 50%
    16:00 +29°C° 0 mm 4 mps 718 mmHg 56%
    17:00 +28°C° 0 mm 5 mps 718 mmHg 63%
    18:00 +26°C° 0 mm 5 mps 718 mmHg 69%
    19:00 +26°C° 0 mm 4 mps 718 mmHg 73%
    20:00 +25°C° 0 mm 3 mps 719 mmHg 77%
    21:00 +24°C° 0 mm 2 mps 720 mmHg 81%
    22:00 +24°C° 0 mm 2 mps 720 mmHg 76%
    23:00 +25°C° 0 mm 2 mps 720 mmHg 71%

    21 September, Saturday

    Time Temperature Precipitation Wind Pressure Humidity
    00:00 +25°C° 0 mm 2 mps 720 mmHg 67%
    01:00 +25°C° 0 mm 2 mps 720 mmHg 65%
    02:00 +25°C° 0 mm 3 mps 720 mmHg 63%
    03:00 +26°C° 0 mm 4 mps 720 mmHg 62%
    04:00 +26°C° 0 mm 4 mps 719 mmHg 58%
    05:00 +26°C° 0 mm 3 mps 719 mmHg 54%
    06:00 +26°C° 0 mm 3 mps 719 mmHg 51%
    07:00 +27°C° 0 mm 3 mps 720 mmHg 48%
    08:00 +27°C° 0 mm 3 mps 720 mmHg 45%
    09:00 +28°C° 0 mm 3 mps 720 mmHg 42%
    10:00 +29°C° 0 mm 3 mps 720 mmHg 40%
    11:00 +30°C° 0 mm 3 mps 720 mmHg 37%
    12:00 +33°C° 0 mm 3 mps 720 mmHg 34%
    13:00 +32°C° 0 mm 4 mps 719 mmHg 38%
    14:00 +32°C° 0 mm 5 mps 719 mmHg 41%
    15:00 +30°C° 0 mm 6 mps 718 mmHg 45%
    16:00 +29°C° 0 mm 5 mps 718 mmHg 49%
    17:00 +28°C° 0 mm 4 mps 718 mmHg 53%
    18:00 +27°C° 0 mm 3 mps 718 mmHg 57%
    19:00 +27°C° 0 mm 2 mps 718 mmHg 58%
    20:00 +26°C° 0 mm 2 mps 719 mmHg 59%
    21:00 +26°C° 0 mm 1 mps 719 mmHg 60%
    22:00 +26°C° 0 mm 1 mps 719 mmHg 62%
    23:00 +25°C° 0 mm 1 mps 719 mmHg 64%
    Show more